NOAA NWS Hourly Roundups by Site

Regional Weather Roundup for San Diego, CA

To Select Another Site Choose from List

Select Site:  

107
ASUS46 KSGX 251111
RWRSGX

SAN DIEGO HOURLY WEATHER ROUNDUP
NATIONAL WEATHER SERVICE SAN DIEGO CA
300 AM PST WED NOV 25 2020

NOTE: "FAIR" INDICATES FEW OR NO CLOUDS BELOW 12,000 FEET WITH NO
SIGNIFICANT WEATHER AND/OR OBSTRUCTIONS TO VISIBILITY.

CAZ042-043-060-061-PZZ750-775-251200-

GREATER SAN DIEGO AREA

CITY           SKY/WX    TMP DP  RH WIND       PRES   REMARKS
SAN DIEGO AP   CLOUDY    54  49  83 CALM      30.10S
CHULA VISTA      N/A     49  47  92 CALM      30.00R
BROWN FIELD    CLEAR     44  44 100 E5        30.09R
MIRAMAR MCAS   CLOUDY    49  48  97 E5        30.08S
MONTGOMERY FLD MOCLDY    51  47  86 CALM      30.09S
GILLESPIE FLD  FAIR      46  45  93 CALM      30.09S
LEMON GROVE      N/A     49  48  95 CALM      30.07S

$$

NORTH SAN DIEGO COUNTY

CITY           SKY/WX    TMP DP  RH WIND       PRES   REMARKS
CAMP PENDLETON PTCLDY    47  36  65 CALM      30.09S
OCEANSIDE AP   CLEAR     42  42 100 CALM      30.09S
OCEANSIDE HBR    N/A     49  46  90 CALM      30.16R
VISTA            N/A     47  42  82 CALM      30.07S
CARLSBAD       CLEAR     51  46  83 CALM      30.07F
ENCINITAS        N/A     49  48  95 CALM        N/A
LA JOLLA SCRIP   N/A     55  51  85 CALM      30.08S
FALLBROOK      FAIR      48  45  87 N3        30.09S
ESCONDIDO        N/A     48  44  84 CALM      30.10R
SAN MARCOS       N/A     50  47  88 CALM      30.12S
RANCHO BERNARD   N/A     47  44  90 CALM      30.09S
POWAY            N/A     44  42  91 CALM      30.11S

$$

EAST SAN DIEGO COUNTY

CITY           SKY/WX    TMP DP  RH WIND       PRES   REMARKS
RAMONA         CLEAR     35  34  96 CALM      30.09R FOG
LA MESA          N/A     51  48  88 CALM      30.04R
JAMUL            N/A     43  42  96 CALM      30.10R
DESCANSO N       N/A     41  29  63 NE2       30.14S

$$

ORANGE COUNTY AND THE LOS ANGELES BASIN

CITY           SKY/WX    TMP DP  RH WIND       PRES   REMARKS
JOHN WAYNE AP  CLEAR     53  47  79 CALM      30.09S
LAGUNA BEACH     N/A     48  46  93 CALM      30.07F
LAKE FOREST FR   N/A     50  42  73 NE3       29.97R
HUNTINGTON BCH   N/A     47  46  96 CALM      30.09S
LOS ALAMITOS   FAIR      48  48 100 NE5       30.09S
FULLERTON      CLEAR     51  45  79 CALM      30.08F
LONG BEACH     MOCLDY    51  49  92 CALM      30.09S FOG
L.A. AP        PTCLDY    53  51  93 NE3       30.09S FOG
L.A. DOWNTOWN  FOG       55  52  89 CALM      30.09S VSB 1/2

$$

THE INLAND EMPIRE

CITY           SKY/WX    TMP DP  RH WIND       PRES   REMARKS
CORONA         CLEAR     40  38  93 CALM      30.11R
UPLAND AP      FAIR      52  43  71 NW5       30.09S
CHINO          CLEAR     48  44  86 CALM      30.11S FOG
ONTARIO        PTCLDY    49  42  77 VRB5      30.09R
SAN BERNARDINO FAIR      47  30  52 CALM      30.09S
RIVERSIDE AP   CLEAR     47  40  76 CALM      30.10R
MORENO VALLEY    N/A     51  34  52 CALM      30.01S
MARCH ARB      CLEAR     36  30  78 CALM      30.08S
HORSETHIEF CYN   N/A     48  29  48 S2        30.08S
PERRIS           N/A     46  41  81 CALM      30.11S
LAKE ELSINORE    N/A     40  36  86 CALM      30.04S
HEMET AP         N/A     37  33  84 N3        30.09S
FRENCH VALLEY  FAIR      45  41  87 CALM      30.09S
TEMECULA         N/A     44  41  90 CALM      30.10S

$$

SAN BERNARDINO AND RIVERSIDE COUNTY MOUNTAINS

CITY           SKY/WX    TMP DP  RH WIND       PRES   REMARKS
BIG BEAR AP    CLEAR     21  16  79 CALM      30.17S
BIG BEAR LAKE    N/A     26  18  73 CALM      30.22S
LK ARROWHEAD N   N/A     33  21  61 CALM      30.13S
WRIGHTWOOD       N/A     35  17  47 CALM      30.17S
ANGELUS OAKS     N/A     37  23  58 CALM      30.07S
TORO PEAK        N/A     37  -4  17 W23         N/A  WCI  26

$$

SOUTHERN DESERT INCLUDING THE COACHELLA VALLEY

CITY           SKY/WX    TMP DP  RH WIND       PRES   REMARKS
PALM SPRINGS   CLEAR     54  24  31 NW7       30.09S
THOUSAND PALMS   N/A     49  20  31 NW2       30.04S
PALM DESERT      N/A     48  34  59 CALM      29.85S
INDIO            N/A     54  26  34 SE1       30.06F
THERMAL        CLEAR     44  30  57 N5        30.07S
BORREGO AP     PTSUNNY   37  18  44 CALM      30.07S
OCOTILLO WELLS   N/A     52  25  34 CALM      30.01S
CANEBRAKE        N/A     53  23  30 NW6       30.05R
BLYTHE         CLEAR     47  16  29 W5        30.08S
IMPERIAL AP    CLEAR     48  29  47 SW5       30.06S
YUMA AZ        CLEAR     51  24  34 N3        30.07S

$$

UPPER DESERT

CITY           SKY/WX    TMP DP  RH WIND       PRES   REMARKS
HESPERIA         N/A     37  18  46 NE3       30.20R
APPLE VALLEY     N/A     26  21  83 CALM      30.23R
PALMDALE       CLEAR     34  19  54 S8        30.12F WCI  27
LANCASTER      CLEAR     29  16  58 E5        30.12F WCI  24
EDWARDS AFB    CLEAR     31  13  47 CALM      30.10S
GRAY BUTTE AP  FAIR      34  15  47 S5        30.09F WCI  29
DAGGETT        CLEAR     41  14  33 W9        30.11S
29 PALMS N     CLEAR     37  15  40 W5        30.17F WCI  33
29 PALMS JTNP    N/A     41  18  39 CALM      30.07S
NEEDLES        CLEAR     43  17  35 S5        30.09S

$$

REGIONAL REPORTS

CITY           SKY/WX    TMP DP  RH WIND       PRES   REMARKS
SANTA BARBARA  CLEAR     43  40  89 CALM      30.07S
SANDBERG       CLEAR     47  23  38 NW10      30.14S
LAS VEGAS NV   CLEAR     42  16  34 SW6       30.11S
PHOENIX AZ     CLEAR     51  24  34 E6        30.07R
TIJUANA        CLEAR     50  46  87 CALM      30.11
ENSENADA NW      N/A     54  32  43 CALM      30.06S

$$

OFFSHORE ISLANDS

CITY           SKY/WX    TMP DP  RH WIND       PRES   REMARKS
CATALINA ARPT  CLEAR     53  46  77 CALM      30.10S
SAN CLEMENTE I   N/A     55  32  41 N5        30.10S
SAN NICOLAS IS FOG       52  51  97 S7        30.08S VSB 3/4

$$

MARINE AND OFFSHORE BUOY REPORTS

STATION/POSITION SKY/WX   TEMP    WIND        PRES    VSBY  SWELL
                          AIR SEA DIR/SP/G                  HT/PER/DIR
                          (F)     (DEG/KT/KT) (MB)    (MI)  (FT/S/D)
TANNER BANKS               58     310/ 10/ 12 1018.8S         7/290/13
S CLEMENTE BASIN           61                 1018.8R         3/270/15
SAN NICOLAS IS.               58                N/A           7/310/13
SO. S. ROSA ISLA           55 58              1019.0R         7/300/13
W. S. BARBARA CH                  300/ 12/ 16 1018.3S         8/300/12
M. S. BARBARA CH           57 58  270/  4/  6 1018.6R         5/270/13
S. MONICA BASIN            57 59  300/  2/  2 1018.4F         2/260/14
S PEDRO CHANNEL               59                N/A           2/260/13
OCEANSIDE OFFSHR              63                N/A           2/230/14
TORREY PINES OTR              61                N/A           2/280/13
SAN DIEGO BAY                 63              1018.8R
IMPERIAL BEACH                60                N/A           2/270/13
POINT LOMA SOUTH              64                N/A           3/270/13

$$




 

View Past Reports for San Diego, CA.

Products Courtesy of NOAA-NWS
NWS Information Parsing Script by Ken True at Saratoga Weather - Script by SE Lincoln Weather.